• Em Portugal
  • Lista de países
  • Para 7 dias
  • Temperatura da água
  • Mapas de satélite
  • Mapa do tempo
  • Widgets de tempo
  • user-avatar
    Iniciar Sessão

    Previsão horária em Badze

    Hoje, 24 Outubro, Quarta-feira

    Tempo Temperatura Precipitação Vento Pressão Humidade
    00:00 +5°C° 0.3 mm 7 m/s 734 mmHg 77%
    01:00 +5°C° 0.3 mm 7 m/s 734 mmHg 77%
    02:00 +4°C° 0.3 mm 7 m/s 734 mmHg 75%
    03:00 +4°C° 0.3 mm 8 m/s 734 mmHg 74%
    04:00 +4°C° 0.3 mm 8 m/s 735 mmHg 72%
    05:00 +3°C° 0.2 mm 9 m/s 735 mmHg 71%
    06:00 +2°C° 0.2 mm 9 m/s 736 mmHg 69%
    07:00 +2°C° 0.2 mm 9 m/s 737 mmHg 67%
    08:00 +2°C° 0.1 mm 10 m/s 737 mmHg 65%
    09:00 +3°C° 0.1 mm 11 m/s 738 mmHg 62%
    10:00 +4°C° 0.1 mm 11 m/s 739 mmHg 59%
    11:00 +4°C° 0.1 mm 11 m/s 740 mmHg 59%
    12:00 +4°C° 0.1 mm 11 m/s 740 mmHg 59%
    13:00 +4°C° 0.1 mm 11 m/s 741 mmHg 59%
    14:00 +4°C° 0 mm 11 m/s 741 mmHg 59%
    15:00 +5°C° 0 mm 10 m/s 742 mmHg 60%
    16:00 +5°C° 0 mm 10 m/s 743 mmHg 60%
    17:00 +3°C° 0 mm 9 m/s 743 mmHg 62%
    18:00 +4°C° 0 mm 8 m/s 744 mmHg 63%
    19:00 +4°C° 0 mm 7 m/s 744 mmHg 65%
    20:00 +3°C° 0 mm 6 m/s 745 mmHg 67%
    21:00 +3°C° 0 mm 6 m/s 745 mmHg 69%
    22:00 +3°C° 0 mm 5 m/s 745 mmHg 70%
    23:00 +3°C° 0 mm 5 m/s 745 mmHg 72%

    Amanhã, 25 Outubro, Quinta-feira

    Tempo Temperatura Precipitação Vento Pressão Humidade
    00:00 +3°C° 0 mm 4 m/s 745 mmHg 74%
    01:00 +3°C° 0 mm 4 m/s 745 mmHg 76%
    02:00 +3°C° 0 mm 4 m/s 745 mmHg 77%
    03:00 +3°C° 0 mm 4 m/s 744 mmHg 78%
    04:00 +3°C° 0 mm 4 m/s 744 mmHg 78%
    05:00 +2°C° 0.4 mm 5 m/s 743 mmHg 81%
    06:00 +2°C° 0.4 mm 5 m/s 742 mmHg 84%
    07:00 +2°C° 0.4 mm 6 m/s 741 mmHg 87%
    08:00 +3°C° 0.6 mm 6 m/s 740 mmHg 88%
    09:00 +5°C° 0.6 mm 6 m/s 739 mmHg 88%
    10:00 +7°C° 0.6 mm 6 m/s 738 mmHg 89%
    11:00 +8°C° 0.2 mm 7 m/s 738 mmHg 82%
    12:00 +9°C° 0.2 mm 8 m/s 738 mmHg 75%
    13:00 +8°C° 0.2 mm 9 m/s 738 mmHg 68%
    14:00 +9°C° 0.1 mm 8 m/s 738 mmHg 69%
    15:00 +7°C° 0.1 mm 8 m/s 738 mmHg 70%
    16:00 +8°C° 0.1 mm 7 m/s 738 mmHg 70%
    17:00 +6°C° 0 mm 7 m/s 739 mmHg 73%
    18:00 +6°C° 0 mm 7 m/s 739 mmHg 76%
    19:00 +5°C° 0 mm 6 m/s 740 mmHg 79%
    20:00 +5°C° 0 mm 6 m/s 740 mmHg 80%
    21:00 +5°C° 0 mm 6 m/s 740 mmHg 80%
    22:00 +5°C° 0 mm 6 m/s 741 mmHg 81%
    23:00 +5°C° 0 mm 6 m/s 741 mmHg 83%

    Depois de amanhã, 26 Outubro, Sexta-feira

    Tempo Temperatura Precipitação Vento Pressão Humidade
    00:00 +5°C° 0 mm 6 m/s 741 mmHg 84%
    01:00 +6°C° 0 mm 5 m/s 741 mmHg 86%
    02:00 +6°C° 0.1 mm 5 m/s 741 mmHg 87%
    03:00 +5°C° 0.1 mm 5 m/s 741 mmHg 88%
    04:00 +5°C° 0.1 mm 5 m/s 741 mmHg 88%
    05:00 +5°C° 0.1 mm 5 m/s 741 mmHg 88%
    06:00 +5°C° 0.1 mm 5 m/s 742 mmHg 87%
    07:00 +5°C° 0.1 mm 5 m/s 742 mmHg 86%
    08:00 +6°C° 0 mm 5 m/s 742 mmHg 82%
    09:00 +7°C° 0 mm 6 m/s 742 mmHg 78%
    10:00 +8°C° 0 mm 6 m/s 742 mmHg 74%
    11:00 +8°C° 0 mm 6 m/s 741 mmHg 72%
    12:00 +9°C° 0 mm 7 m/s 740 mmHg 69%
    13:00 +9°C° 0 mm 7 m/s 740 mmHg 66%
    14:00 +9°C° 0.5 mm 7 m/s 739 mmHg 72%
    15:00 +9°C° 0.5 mm 7 m/s 738 mmHg 78%
    16:00 +8°C° 0.5 mm 7 m/s 738 mmHg 84%
    17:00 +8°C° 0.1 mm 7 m/s 737 mmHg 84%
    18:00 +9°C° 0.1 mm 7 m/s 737 mmHg 83%
    19:00 +9°C° 0.1 mm 7 m/s 736 mmHg 83%
    20:00 +7°C° 0.2 mm 8 m/s 736 mmHg 83%
    21:00 +7°C° 0.2 mm 8 m/s 736 mmHg 82%
    22:00 +7°C° 0.2 mm 8 m/s 735 mmHg 81%
    23:00 +6°C° 0.4 mm 8 m/s 735 mmHg 81%

    27 Outubro, Sábado

    Tempo Temperatura Precipitação Vento Pressão Humidade
    00:00 +6°C° 0.4 mm 7 m/s 735 mmHg 80%
    01:00 +5°C° 0.4 mm 7 m/s 735 mmHg 80%
    02:00 +5°C° 0.4 mm 7 m/s 736 mmHg 80%
    03:00 +5°C° 0.4 mm 7 m/s 736 mmHg 79%
    04:00 +4°C° 0.4 mm 7 m/s 736 mmHg 79%
    05:00 +4°C° 0.1 mm 7 m/s 737 mmHg 79%
    06:00 +4°C° 0.1 mm 7 m/s 738 mmHg 79%
    07:00 +4°C° 0.1 mm 7 m/s 738 mmHg 78%
    08:00 +4°C° 0 mm 7 m/s 739 mmHg 75%
    09:00 +5°C° 0 mm 7 m/s 740 mmHg 71%
    10:00 +5°C° 0 mm 8 m/s 741 mmHg 68%
    11:00 +5°C° 0.2 mm 8 m/s 741 mmHg 67%
    12:00 +6°C° 0.2 mm 7 m/s 742 mmHg 66%
    13:00 +6°C° 0.2 mm 7 m/s 743 mmHg 65%
    14:00 +5°C° 0.1 mm 6 m/s 744 mmHg 67%
    15:00 +5°C° 0.1 mm 5 m/s 744 mmHg 68%
    16:00 +5°C° 0.1 mm 4 m/s 745 mmHg 70%
    17:00 +4°C° 0 mm 4 m/s 745 mmHg 72%
    18:00 +3°C° 0 mm 4 m/s 746 mmHg 75%
    19:00 +2°C° 0 mm 3 m/s 747 mmHg 78%
    20:00 +2°C° 0 mm 3 m/s 747 mmHg 79%
    21:00 +2°C° 0 mm 3 m/s 748 mmHg 80%
    22:00 +2°C° 0 mm 3 m/s 748 mmHg 81%
    23:00 +2°C° 0 mm 3 m/s 749 mmHg 82%

    28 Outubro, Domingo

    Tempo Temperatura Precipitação Vento Pressão Humidade
    00:00 +1°C° 0 mm 3 m/s 749 mmHg 83%
    01:00 +1°C° 0 mm 3 m/s 749 mmHg 84%
    02:00 +2°C° 0 mm 2 m/s 750 mmHg 85%
    03:00 +2°C° 0 mm 2 m/s 750 mmHg 85%
    04:00 +2°C° 0 mm 2 m/s 750 mmHg 86%
    05:00 +3°C° 0 mm 1 m/s 751 mmHg 86%
    06:00 +3°C° 0 mm 1 m/s 752 mmHg 85%
    07:00 +3°C° 0 mm 1 m/s 752 mmHg 85%
    08:00 +5°C° 0 mm 1 m/s 752 mmHg 80%
    09:00 +5°C° 0 mm 2 m/s 753 mmHg 74%
    10:00 +6°C° 0 mm 2 m/s 753 mmHg 69%
    11:00 +7°C° 0 mm 2 m/s 753 mmHg 66%
    12:00 +7°C° 0 mm 3 m/s 753 mmHg 62%
    13:00 +7°C° 0 mm 3 m/s 753 mmHg 59%
    14:00 +7°C° 0 mm 3 m/s 753 mmHg 62%
    15:00 +5°C° 0 mm 4 m/s 753 mmHg 64%
    16:00 +5°C° 0 mm 4 m/s 753 mmHg 66%
    17:00 +5°C° 0 mm 4 m/s 753 mmHg 67%
    18:00 +4°C° 0 mm 4 m/s 754 mmHg 68%
    19:00 +4°C° 0 mm 4 m/s 754 mmHg 68%
    20:00 +3°C° 0 mm 5 m/s 754 mmHg 68%
    21:00 +3°C° 0 mm 5 m/s 754 mmHg 67%
    22:00 +3°C° 0 mm 5 m/s 754 mmHg 67%
    23:00 +2°C° 0.1 mm 6 m/s 753 mmHg 67%

    29 Outubro, Segunda-feira

    Tempo Temperatura Precipitação Vento Pressão Humidade
    00:00 +2°C° 0.1 mm 6 m/s 753 mmHg 68%
    01:00 +2°C° 0.1 mm 7 m/s 752 mmHg 68%
    02:00 +2°C° 0.3 mm 7 m/s 752 mmHg 70%
    03:00 +1°C° 0.3 mm 8 m/s 752 mmHg 72%
    04:00 +1°C° 0.3 mm 8 m/s 751 mmHg 73%
    05:00 0°C° 0.8 mm 9 m/s 751 mmHg 75%
    06:00 0°C° 0.8 mm 9 m/s 750 mmHg 77%
    07:00 0°C° 0.8 mm 10 m/s 750 mmHg 78%
    08:00 0°C° 1.6 mm 10 m/s 749 mmHg 81%
    09:00 0°C° 1.6 mm 10 m/s 749 mmHg 84%
    10:00 0°C° 1.6 mm 10 m/s 748 mmHg 86%
    11:00 -2°C° 1.6 mm 10 m/s 748 mmHg 88%
    12:00 -2°C° 1.6 mm 10 m/s 747 mmHg 89%
    13:00 -2°C° 1.6 mm 10 m/s 747 mmHg 91%
    14:00 -2°C° 0.7 mm 10 m/s 746 mmHg 91%
    15:00 -2°C° 0.7 mm 10 m/s 746 mmHg 91%
    16:00 -2°C° 0.7 mm 10 m/s 745 mmHg 91%
    17:00 -1°C° 0.7 mm 9 m/s 745 mmHg 92%
    18:00 -1°C° 0.7 mm 9 m/s 745 mmHg 92%
    19:00 -1°C° 0.7 mm 8 m/s 745 mmHg 92%
    20:00 -1°C° 0.1 mm 8 m/s 745 mmHg 93%
    21:00 -1°C° 0.1 mm 8 m/s 745 mmHg 93%
    22:00 -1°C° 0.1 mm 7 m/s 745 mmHg 93%
    23:00 -1°C° 0 mm 7 m/s 744 mmHg 94%

    30 Outubro, Terça-feira

    Tempo Temperatura Precipitação Vento Pressão Humidade
    00:00 -1°C° 0 mm 7 m/s 744 mmHg 94%
    01:00 -1°C° 0 mm 6 m/s 744 mmHg 95%
    02:00 0°C° 0 mm 7 m/s 744 mmHg 95%
    03:00 0°C° 0 mm 7 m/s 744 mmHg 96%
    04:00 0°C° 0 mm 7 m/s 744 mmHg 96%
    05:00 +2°C° 0 mm 7 m/s 744 mmHg 96%
    06:00 +2°C° 0 mm 7 m/s 743 mmHg 96%
    07:00 +3°C° 0 mm 7 m/s 743 mmHg 96%
    08:00 +4°C° 0 mm 7 m/s 743 mmHg 95%
    09:00 +5°C° 0 mm 7 m/s 743 mmHg 94%
    10:00 +8°C° 0 mm 7 m/s 742 mmHg 93%
    11:00 +9°C° 0 mm 7 m/s 742 mmHg 92%
    12:00 +10°C° 0 mm 7 m/s 742 mmHg 90%
    13:00 +11°C° 0 mm 7 m/s 742 mmHg 89%
    14:00 +11°C° 0 mm 6 m/s 742 mmHg 90%
    15:00 +12°C° 0 mm 5 m/s 742 mmHg 90%
    16:00 +12°C° 0 mm 5 m/s 742 mmHg 90%
    17:00 +12°C° 0.2 mm 4 m/s 743 mmHg 91%
    18:00 +12°C° 0.2 mm 4 m/s 743 mmHg 93%
    19:00 +12°C° 0.2 mm 4 m/s 743 mmHg 94%
    20:00 +11°C° 3 mm 3 m/s 743 mmHg 95%
    21:00 +11°C° 3 mm 3 m/s 743 mmHg 95%
    22:00 +11°C° 3 mm 3 m/s 743 mmHg 95%
    23:00 +10°C° 1.9 mm 3 m/s 743 mmHg 95%
    Mostrar mais